Weather in Staromar'evka

Russia / Stavropol Krai     45°05′27″N   42°13′18″E
temp.,
°C
wind,
m/s
gust,
m/s
humid.,
%
clouds,
%
prec.,
mm/h
press.,
hPa
HPBL,
m
11 may, tue
tue1100:00+7wsw91658100 0.0 10171021
03:00+6sw71559100 0.0 1016861
06:00+6s51168100 0.1 1016797
09:00+8sse4873100 0.2 1016793
12:00+10se4768100 0.6 10161104
15:00+11se4661100 0.9 10161398
18:00+9nne2485100 1.4 1016154
21:00+7n2690100 1.5 1016154
12 may, wed
wed1200:00+7ne118858 0.0 101615
03:00+6e1185100 0.0 101711
06:00+7sse118237 0.0 101746
09:00+12ese34670 0.0 1017592
12:00+16e56561 0.0 10161267
15:00+18e66589 0.0 10151433
18:00+16ese58720 0.0 1015592
21:00+11ese36885 0.0 101489
13 may, thu
thu1300:00+10ese22900 0.0 101426
03:00+10se22900 0.0 101320
06:00+11se25900 0.0 1014132
09:00+17se46690 0.0 1014488
12:00+22ese55580 0.0 1013856
15:00+23ese66575 0.0 10131055
18:00+21ese59715 0.0 1013397
21:00+16ese37840 0.0 1014116
14 may, fri
fri1400:00+14se368195 0.0 101385
03:00+14se3482100 0.0 101256
06:00+14sse24865 0.0 1013110
09:00+21se456810 0.0 1012360
12:00+26se33541 0.0 1011670
15:00+28e43505 0.0 1011883
18:00+24se47700 0.0 1011231
21:00+18se22810 0.0 101215
15 may, sat
sat1500:00+17se22824 0.0 101119
03:00+16s22863 0.0 101116
06:00+17wsw23856 0.0 101254
09:00+23wnw34690 0.0 1013497
12:00+26nw56612 0.0 10131027
15:00+26nw556123 0.0 10131391
18:00+23wnw577667 0.1 1013488
21:00+18wnw239395 0.1 101456